Location: Newark
(46.1364°N, 6.1331°E)
Time: 01:13:07
(UTC+00:00)

N. Korean satellite - Visible Passes

Search period start: 22 February 2020 00:00
Search period end: 03 March 2020 00:00
Orbit: 456 x 505 km, 97.2° (Epoch: 21 February)

Date Brightness Start Highest point End Pass type
(mag) Time Alt. Az. Time Alt. Az. Time Alt. Az.
22 Feb 9.1 04:43:41 10° NE 04:46:48 25° E 04:49:54 10° SSE visible
23 Feb 10.0 04:19:13 10° ENE 04:21:03 13° E 04:22:53 10° ESE visible
23 Feb 6.9 05:51:07 10° N 05:54:43 49° WNW 05:58:17 10° SSW visible
24 Feb 6.7 05:25:29 10° NNE 05:29:13 81° ESE 05:32:54 10° S visible
24 Feb 10.1 17:38:07 10° SW 17:40:10 14° W 17:42:15 10° NW visible
25 Feb 8.2 05:00:07 10° NNE 05:03:38 38° E 05:07:05 10° SSE visible
26 Feb 9.5 04:35:07 10° NE 04:37:56 20° E 04:40:42 10° SE visible
27 Feb 10.3 04:11:26 10° ENE 04:12:08 10° E 04:12:49 10° E visible
27 Feb 6.6 05:42:15 10° N 05:45:56 62° WNW 05:49:33 10° SSW visible
28 Feb 7.2 05:16:41 10° NNE 05:20:23 63° E 05:24:01 10° S visible
29 Feb 8.7 04:51:25 10° NNE 04:54:45 30° E 04:58:01 10° SSE visible
01 Mar 9.8 04:26:39 10° NE 04:29:00 16° E 04:31:21 10° SE visible
02 Mar 6.6 05:33:22 10° N 05:37:05 80° WNW 05:40:43 10° SSW visible
